TimeEDT,TemperatureF,Dew PointF,Humidity,Sea Level PressureIn,VisibilityMPH,Wind Direction,Wind SpeedMPH,Gust SpeedMPH,PrecipitationIn,Events,Conditions,WindDirDegrees,DateUTC
12:15 AM,71.6,60.8,69,30.21,10.0,Calm,Calm,-,N/A,,Overcast,0,2013-09-17 04:15:00
12:35 AM,69.8,62.6,78,30.21,10.0,Calm,Calm,-,N/A,,Overcast,0,2013-09-17 04:35:00
12:57 AM,69.8,60.8,73,30.21,10.0,Calm,Calm,-,N/A,,Overcast,0,2013-09-17 04:57:00
1:15 AM,68.0,60.8,78,30.22,10.0,Calm,Calm,-,N/A,,Overcast,0,2013-09-17 05:15:00
1:57 AM,68.0,62.6,83,30.23,10.0,North,3.5,-,N/A,,Overcast,10,2013-09-17 05:57:00
2:15 AM,69.8,59.0,68,30.23,10.0,NE,4.6,-,N/A,,Overcast,50,2013-09-17 06:15:00
2:35 AM,69.8,59.0,68,30.23,10.0,NNE,4.6,-,N/A,,Overcast,20,2013-09-17 06:35:00
2:55 AM,68.0,57.2,68,30.23,10.0,ENE,4.6,-,N/A,,Overcast,60,2013-09-17 06:55:00
3:17 AM,68.0,57.2,68,30.24,10.0,ENE,3.5,-,N/A,,Overcast,70,2013-09-17 07:17:00
3:35 AM,68.0,57.2,68,30.24,10.0,Calm,Calm,-,N/A,,Overcast,0,2013-09-17 07:35:00
3:55 AM,66.2,55.4,68,30.24,10.0,ENE,5.8,-,N/A,,Overcast,60,2013-09-17 07:55:00
4:15 AM,66.2,55.4,68,30.24,10.0,NE,3.5,-,N/A,,Overcast,50,2013-09-17 08:15:00
4:35 AM,66.2,57.2,73,30.26,10.0,ENE,9.2,-,N/A,,Overcast,70,2013-09-17 08:35:00
4:55 AM,66.2,55.4,68,30.26,10.0,NNE,4.6,-,N/A,,Overcast,20,2013-09-17 08:55:00
5:17 AM,66.2,55.4,68,30.26,10.0,North,3.5,-,N/A,,Overcast,10,2013-09-17 09:17:00
5:35 AM,64.4,55.4,73,30.27,10.0,NNE,4.6,-,N/A,,Overcast,30,2013-09-17 09:35:00
5:55 AM,64.4,57.2,77,30.27,10.0,NNW,4.6,-,N/A,,Overcast,340,2013-09-17 09:55:00
6:15 AM,62.6,57.2,82,30.28,10.0,NNW,4.6,-,N/A,,Overcast,340,2013-09-17 10:15:00
6:35 AM,62.6,55.4,77,30.28,10.0,North,6.9,-,N/A,,Overcast,350,2013-09-17 10:35:00
6:55 AM,62.6,55.4,77,30.28,10.0,NNW,5.8,-,N/A,,Overcast,340,2013-09-17 10:55:00
7:15 AM,-9999,-9999,N/A,30.29,10.0,NNW,5.8,-,N/A,,Overcast,330,2013-09-17 11:15:00
7:35 AM,62.2,55.8,79,30.30,10.0,North,4.6,-,N/A,,Overcast,350,2013-09-17 11:35:00
7:55 AM,62.1,55.8,80,30.31,10.0,NNW,5.8,-,N/A,,Overcast,330,2013-09-17 11:55:00
8:15 AM,62.2,55.8,79,30.31,10.0,NW,4.6,-,N/A,,Overcast,320,2013-09-17 12:15:00
8:35 AM,62.6,55.8,78,30.32,10.0,NNW,4.6,-,N/A,,Overcast,330,2013-09-17 12:35:00
8:55 AM,63.0,55.8,77,30.32,10.0,NW,5.8,-,N/A,,Overcast,320,2013-09-17 12:55:00
9:15 AM,63.5,55.4,75,30.33,10.0,NNW,5.8,-,N/A,,Overcast,340,2013-09-17 13:15:00
9:35 AM,64.0,55.4,73,30.34,10.0,NW,4.6,-,N/A,,Overcast,320,2013-09-17 13:35:00
9:55 AM,64.8,55.2,71,30.34,10.0,NNW,4.6,-,N/A,,Overcast,330,2013-09-17 13:55:00
10:15 AM,65.7,55.4,69,30.34,10.0,NNW,4.6,-,N/A,,Overcast,340,2013-09-17 14:15:00
10:35 AM,65.8,55.0,68,30.35,10.0,North,6.9,-,N/A,,Overcast,10,2013-09-17 14:35:00
10:55 AM,66.0,54.9,67,30.35,10.0,North,4.6,-,N/A,,Overcast,360,2013-09-17 14:55:00
11:15 AM,67.1,55.2,66,30.35,10.0,North,5.8,-,N/A,,Overcast,10,2013-09-17 15:15:00
11:35 AM,68.9,53.8,58,30.34,10.0,NE,4.6,-,N/A,,Mostly Cloudy,50,2013-09-17 15:35:00
11:55 AM,68.0,53.8,60,30.34,10.0,East,4.6,-,N/A,,Mostly Cloudy,80,2013-09-17 15:55:00
12:15 PM,70.0,55.0,59,30.34,10.0,East,6.9,-,N/A,,Overcast,80,2013-09-17 16:15:00
12:35 PM,68.7,54.0,59,30.34,10.0,East,3.5,-,N/A,,Overcast,90,2013-09-17 16:35:00
12:55 PM,69.4,54.9,60,30.33,10.0,East,6.9,-,N/A,,Overcast,100,2013-09-17 16:55:00
1:15 PM,68.5,54.0,60,30.33,10.0,ESE,8.1,-,N/A,,Overcast,110,2013-09-17 17:15:00
1:35 PM,68.9,54.5,60,30.32,10.0,East,4.6,-,N/A,,Overcast,100,2013-09-17 17:35:00
1:55 PM,70.0,54.9,59,30.31,10.0,ESE,4.6,-,N/A,,Overcast,110,2013-09-17 17:55:00
2:35 PM,69.8,53.6,56,30.31,10.0,ENE,6.9,-,N/A,,Overcast,60,2013-09-17 18:35:00
2:57 PM,71.6,55.4,57,30.30,10.0,East,8.1,-,N/A,,Overcast,100,2013-09-17 18:57:00
3:15 PM,69.8,53.6,56,30.29,10.0,ENE,3.5,-,N/A,,Overcast,60,2013-09-17 19:15:00
3:35 PM,69.8,55.4,60,30.29,10.0,ENE,4.6,-,N/A,,Overcast,60,2013-09-17 19:35:00
3:57 PM,71.6,55.4,57,30.28,10.0,ENE,3.5,-,N/A,,Overcast,60,2013-09-17 19:57:00
4:15 PM,69.8,55.4,60,30.28,10.0,ENE,4.6,-,N/A,,Overcast,60,2013-09-17 20:15:00
4:37 PM,69.8,55.4,60,30.27,10.0,NE,4.6,-,N/A,,Overcast,40,2013-09-17 20:37:00
4:57 PM,69.8,55.4,60,30.27,10.0,North,4.6,-,N/A,,Mostly Cloudy,10,2013-09-17 20:57:00
5:15 PM,71.6,55.4,57,30.27,10.0,NE,4.6,-,N/A,,Scattered Clouds,40,2013-09-17 21:15:00
5:36 PM,71.6,55.4,57,30.26,10.0,NE,3.5,-,N/A,,Mostly Cloudy,50,2013-09-17 21:36:00
5:56 PM,69.8,55.4,60,30.26,10.0,NE,6.9,-,N/A,,Overcast,40,2013-09-17 21:56:00
6:16 PM,69.8,55.4,60,30.26,10.0,NNE,4.6,-,N/A,,Scattered Clouds,30,2013-09-17 22:16:00
6:36 PM,69.8,57.2,64,30.26,10.0,NNE,4.6,-,N/A,,Mostly Cloudy,20,2013-09-17 22:36:00
6:56 PM,69.8,57.2,64,30.26,10.0,NNE,4.6,-,N/A,,Overcast,30,2013-09-17 22:56:00
7:15 PM,67.6,58.1,71,30.26,10.0,NNE,3.5,-,N/A,,Overcast,30,2013-09-17 23:15:00
7:55 PM,66.2,57.2,73,30.26,10.0,North,3.5,-,N/A,,Overcast,360,2013-09-17 23:55:00
8:15 PM,66.2,57.2,73,30.26,10.0,North,3.5,-,N/A,,Overcast,360,2013-09-18 00:15:00
8:37 PM,64.4,57.2,77,30.27,10.0,North,4.6,-,N/A,,Overcast,10,2013-09-18 00:37:00
8:55 PM,64.4,57.2,77,30.28,10.0,North,4.6,-,N/A,,Overcast,10,2013-09-18 00:55:00
9:15 PM,64.4,57.2,77,30.28,10.0,North,5.8,-,N/A,,Overcast,360,2013-09-18 01:15:00
9:35 PM,64.4,57.2,77,30.29,10.0,North,6.9,-,N/A,,Overcast,10,2013-09-18 01:35:00
9:57 PM,64.4,57.2,77,30.29,10.0,North,5.8,-,N/A,,Overcast,360,2013-09-18 01:57:00
10:17 PM,64.4,57.2,77,30.29,10.0,North,4.6,-,N/A,,Overcast,350,2013-09-18 02:17:00
10:37 PM,64.4,57.2,77,30.29,10.0,North,5.8,-,N/A,,Overcast,10,2013-09-18 02:37:00
10:55 PM,64.4,57.2,77,30.30,10.0,NNW,4.6,-,N/A,,Overcast,340,2013-09-18 02:55:00
11:15 PM,64.4,57.2,77,30.30,10.0,NW,4.6,-,N/A,,Overcast,310,2013-09-18 03:15:00
11:35 PM,64.4,57.2,77,30.30,10.0,North,5.8,-,N/A,,Overcast,10,2013-09-18 03:35:00
11:55 PM,64.4,57.2,77,30.30,10.0,North,5.8,-,N/A,,Overcast,360,2013-09-18 03:55:00